QPF
0.06 0.04 0.03 0.02 0.01 0.02 0.02 0.02 0.02 0.02 0.03 0.03 0.04 0.04 0.04 0.03 0.03 0.02 0.02 0.03 0.03 0.03 0.05 0.08 0.09 0.09 0.10 0.12 0.12 0.12 0.10 0.09 0.07 0.06 0.05 0.04 0.05 0.06 0.04 0.05 0.04 0.04 0.04
0.07 0.05 0.04 0.03 0.01 0.02 0.02 0.02 0.02 0.02 0.02 0.03 0.03 0.04 0.04 0.03 0.02 0.02 0.02 0.02 0.03 0.03 0.04 0.06 0.08 0.08 0.09 0.10 0.12 0.12 0.13 0.14 0.11 0.07 0.06 0.04 0.05 0.03 0.03 0.03 0.02 0.03 0.02
0.05 0.03 0.02 0.02 0.02 0.01 0.01 0.02 0.01 0.01 0.01 0.01 0.02 0.03 0.03 0.03 0.04 0.04 0.03 0.03 0.03 0.03 0.04 0.04 0.06 0.07 0.07 0.09 0.11 0.12 0.13 0.15 0.14 0.11 0.08 0.06 0.07 0.04 0.03 0.02 0.02 0.02 0.02
0.03 0.03 0.02 0.03 0.03 0.02 0.02 0.02 0.02 0.01 0.01 0.01 0.01 0.01 0.02 0.02 0.03 0.04 0.05 0.06 0.06 0.05 0.04 0.03 0.04 0.06 0.08 0.09 0.10 0.10 0.12 0.13 0.12 0.10 0.10 0.08 0.09 0.06 0.05 0.03 0.03 0.02 0.02
0.05 0.04 0.03 0.04 0.04 0.04 0.03 0.03 0.02 0.01 0.01 0.02 0.02 0.02 0.02 0.02 0.02 0.02 0.03 0.05 0.07 0.08 0.07 0.05 0.04 0.06 0.07 0.08 0.09 0.09 0.09 0.09 0.08 0.07 0.08 0.09 0.10 0.07 0.06 0.04 0.03 0.02 0.02
0.06 0.04 0.04 0.04 0.05 0.04 0.04 0.04 0.03 0.03 0.03 0.04 0.04 0.03 0.02 0.02 0.01 0.01 0.01 0.02 0.03 0.04 0.06 0.06 0.04 0.04 0.06 0.08 0.09 0.09 0.09 0.11 0.11 0.09 0.08 0.08 0.10 0.08 0.08 0.06 0.05 0.04 0.03
0.06 0.05 0.05 0.04 0.03 0.04 0.06 0.06 0.06 0.07 0.07 0.08 0.06 0.04 0.03 0.02 0.01 0.01 0.01 0.01 0.02 0.03 0.04 0.05 0.03 0.04 0.04 0.05 0.07 0.08 0.09 0.11 0.12 0.11 0.08 0.07 0.07 0.07 0.06 0.06 0.06 0.05 0.04
0.08 0.08 0.08 0.07 0.06 0.06 0.06 0.05 0.06 0.07 0.07 0.08 0.07 0.06 0.04 0.03 0.02 0.02 0.03 0.02 0.02 0.02 0.02 0.02 0.02 0.02 0.02 0.03 0.03 0.05 0.07 0.08 0.09 0.11 0.10 0.07 0.06 0.06 0.06 0.05 0.05 0.05 0.04
0.08 0.07 0.08 0.08 0.09 0.08 0.06 0.05 0.04 0.04 0.05 0.06 0.07 0.07 0.05 0.03 0.02 0.03 0.04 0.04 0.02 0.03 0.03 0.03 0.04 0.03 0.01 0.02 0.01 0.02 0.04 0.05 0.08 0.09 0.09 0.08 0.06 0.05 0.05 0.05 0.05 0.05 0.04
0.07 0.06 0.06 0.06 0.07 0.07 0.05 0.05 0.05 0.04 0.04 0.05 0.06 0.06 0.05 0.04 0.03 0.02 0.03 0.04 0.03 0.03 0.03 0.04 0.04 0.03 0.02 0.03 0.03 0.02 0.03 0.04 0.06 0.08 0.08 0.07 0.06 0.05 0.05 0.05 0.04 0.05 0.05
0.09 0.07 0.05 0.05 0.04 0.04 0.03 0.04 0.05 0.05 0.05 0.05 0.04 0.05 0.04 0.03 0.02 0.01 0.01 0.01 0.01 0.01 0.01 0.01 0.01 0.01 0.01 0.02 0.02 0.02 0.02 0.03 0.03 0.04 0.05 0.05 0.05 0.04 0.04 0.05 0.05 0.05 0.05
0.10 0.09 0.07 0.05 0.04 0.03 0.04 0.04 0.05 0.06 0.05 0.04 0.04 0.04 0.03 0.03 0.02 0.02 0.02 0.01 0.01 0.01 0.01 0.00 0.00 0.00 0.01 0.01 0.01 0.01 0.02 0.02 0.02 0.03 0.03 0.04 0.04 0.04 0.04 0.05 0.06 0.06 0.06
0.08 0.08 0.08 0.07 0.07 0.05 0.05 0.05 0.06 0.05 0.05 0.04 0.04 0.03 0.02 0.02 0.02 0.02 0.02 0.02 0.01 0.01 0.01 0.00 0.00 0.00 0.01 0.01 0.00 0.01 0.03 0.02 0.02 0.02 0.02 0.03 0.03 0.03 0.03 0.04 0.05 0.06 0.06
0.06 0.06 0.08 0.09 0.10 0.08 0.07 0.06 0.05 0.04 0.04 0.04 0.03 0.03 0.02 0.03 0.03 0.04 0.04 0.04 0.03 0.02 0.01 0.01 0.01 0.01 0.01 0.01 0.01 0.01 0.01 0.03 0.03 0.02 0.02 0.02 0.03 0.03 0.03 0.03 0.03 0.05 0.06
0.05 0.05 0.07 0.08 0.07 0.08 0.06 0.05 0.04 0.04 0.04 0.03 0.03 0.04 0.04 0.05 0.04 0.04 0.03 0.03 0.03 0.03 0.02 0.01 0.01 0.01 0.01 0.01 0.01 0.01 0.01 0.02 0.02 0.02 0.02 0.02 0.03 0.03 0.03 0.03 0.03 0.04 0.05
0.03 0.05 0.05 0.05 0.06 0.07 0.05 0.04 0.04 0.03 0.02 0.03 0.03 0.04 0.04 0.04 0.04 0.04 0.03 0.03 0.03 0.03 0.02 0.02 0.02 0.01 0.01 0.01 0.02 0.02 0.01 0.01 0.02 0.02 0.02 0.02 0.02 0.02 0.02 0.02 0.03 0.03 0.05
0.03 0.04 0.04 0.03 0.04 0.03 0.03 0.03 0.02 0.02 0.02 0.02 0.02 0.02 0.03 0.04 0.04 0.03 0.04 0.05 0.04 0.04 0.04 0.03 0.03 0.02 0.02 0.02 0.02 0.02 0.02 0.02 0.03 0.03 0.03 0.03 0.02 0.02 0.02 0.02 0.03 0.04 0.05
0.04 0.03 0.03 0.02 0.03 0.02 0.02 0.02 0.02 0.01 0.01 0.01 0.02 0.03 0.04 0.04 0.03 0.03 0.04 0.06 0.06 0.06 0.05 0.04 0.04 0.03 0.03 0.03 0.02 0.02 0.03 0.03 0.03 0.03 0.03 0.03 0.03 0.02 0.01 0.01 0.02 0.03 0.04
0.03 0.03 0.02 0.02 0.02 0.02 0.02 0.02 0.02 0.01 0.01 0.01 0.03 0.04 0.04 0.04 0.03 0.02 0.02 0.02 0.02 0.02 0.02 0.02 0.02 0.02 0.03 0.02 0.02 0.01 0.02 0.03 0.03 0.03 0.02 0.02 0.02 0.02 0.02 0.01 0.02 0.02 0.03
0.02 0.02 0.02 0.01 0.01 0.01 0.01 0.02 0.01 0.01 0.02 0.02 0.03 0.03 0.02 0.01 0.01 0.01 0.01 0.01 0.01 0.01 0.01 0.01 0.01 0.01 0.02 0.02 0.02 0.01 0.01 0.02 0.02 0.02 0.02 0.01 0.01 0.01 0.02 0.02 0.02 0.02 0.03
0.02 0.01 0.01 0.01 0.01 0.01 0.01 0.01 0.01 0.01 0.02 0.01 0.00 0.01 0.01 0.00 0.01 0.01 0.01 0.01 0.01 0.01 0.01 0.01 0.01 0.01 0.02 0.02 0.01 0.01 0.01 0.02 0.02 0.02 0.01 0.01 0.01 0.01 0.01 0.01 0.01 0.02 0.03
0.01 0.01 0.01 0.01 0.01 0.01 0.01 0.00 0.00 0.01 0.01 0.00 0.00 0.00 0.01 0.01 0.01 0.01 0.01 0.01 0.01 0.01 0.01 0.01 0.01 0.01 0.01 0.01 0.02 0.02 0.02 0.02 0.02 0.02 0.02 0.01 0.01 0.01 0.01 0.01 0.01 0.01 0.02
0.01 0.01 0.01 0.01 0.01 0.00 0.00 0.00 0.00 0.00 0.00 0.00 0.00 0.00 0.00 0.01 0.01 0.00 0.00 0.00 0.00 0.00 0.01 0.00 0.01 0.01 0.01 0.01 0.01 0.02 0.02 0.02 0.03 0.03 0.03 0.02 0.01 0.01 0.01 0.01 0.01 0.01 0.01
0.01 0.01 0.01 0.01 0.00 0.00 0.00 0.00 0.00 0.00 0.00 0.00 0.00 0.00 0.00 0.01 0.01 0.01 0.01 0.00 0.00 0.00 0.00 0.00 0.00 0.01 0.01 0.01 0.02 0.03 0.04 0.04 0.03 0.03 0.04 0.04 0.03 0.02 0.03 0.02 0.02 0.01 0.01
0.01 0.01 0.01 0.00 0.00 0.00 0.00 0.00 0.00 0.01 0.01 0.01 0.01 0.01 0.01 0.01 0.01 0.02 0.01 0.01 0.00 0.00 0.01 0.00 0.00 0.01 0.02 0.02 0.02 0.03 0.03 0.04 0.04 0.03 0.03 0.04 0.04 0.04 0.05 0.04 0.03 0.02 0.02
0.00 0.01 0.00 0.00 0.00 0.00 0.01 0.02 0.02 0.01 0.01 0.01 0.01 0.01 0.01 0.00 0.01 0.02 0.01 0.01 0.01 0.00 0.00 0.01 0.01 0.01 0.01 0.02 0.03 0.03 0.03 0.04 0.04 0.04 0.04 0.04 0.05 0.04 0.05 0.05 0.05 0.04 0.03
MSLP
1011.76 1012.14 1012.45 1012.70 1012.92 1013.13 1013.33 1013.53 1013.73 1013.93 1014.11 1014.27 1014.41 1014.55 1014.68 1014.82 1014.98 1015.15 1015.33 1015.49 1015.62 1015.71 1015.76 1015.77 1015.75 1015.72 1015.71 1015.71 1015.74 1015.80 1015.88 1015.98 1016.10 1016.23 1016.36 1016.51 1016.67 1016.84 1017.02 1017.21 1017.41 1017.61 1017.83
1011.97 1012.33 1012.62 1012.85 1013.04 1013.21 1013.38 1013.55 1013.73 1013.91 1014.08 1014.25 1014.39 1014.53 1014.65 1014.78 1014.90 1015.04 1015.17 1015.30 1015.41 1015.50 1015.56 1015.59 1015.60 1015.59 1015.57 1015.55 1015.54 1015.54 1015.56 1015.59 1015.65 1015.72 1015.82 1015.93 1016.06 1016.20 1016.36 1016.53 1016.71 1016.90 1017.11
1012.16 1012.51 1012.79 1013.01 1013.18 1013.34 1013.48 1013.63 1013.78 1013.95 1014.11 1014.26 1014.41 1014.54 1014.66 1014.76 1014.87 1014.96 1015.07 1015.16 1015.26 1015.34 1015.40 1015.44 1015.46 1015.45 1015.42 1015.38 1015.33 1015.27 1015.23 1015.20 1015.19 1015.21 1015.26 1015.34 1015.44 1015.56 1015.69 1015.84 1015.99 1016.17 1016.37
1012.33 1012.67 1012.95 1013.17 1013.35 1013.49 1013.62 1013.75 1013.88 1014.01 1014.16 1014.30 1014.43 1014.56 1014.67 1014.77 1014.86 1014.94 1015.02 1015.09 1015.16 1015.23 1015.28 1015.32 1015.33 1015.31 1015.26 1015.19 1015.09 1014.99 1014.89 1014.80 1014.74 1014.71 1014.72 1014.77 1014.84 1014.93 1015.03 1015.16 1015.30 1015.46 1015.65
1012.51 1012.84 1013.12 1013.35 1013.53 1013.68 1013.80 1013.90 1014.00 1014.10 1014.21 1014.33 1014.45 1014.57 1014.69 1014.79 1014.88 1014.96 1015.03 1015.09 1015.15 1015.19 1015.22 1015.24 1015.23 1015.18 1015.11 1015.00 1014.87 1014.72 1014.57 1014.44 1014.34 1014.27 1014.25 1014.25 1014.30 1014.36 1014.44 1014.53 1014.65 1014.79 1014.97
1012.72 1013.03 1013.31 1013.55 1013.75 1013.90 1014.01 1014.09 1014.15 1014.22 1014.30 1014.39 1014.50 1014.62 1014.74 1014.86 1014.97 1015.06 1015.13 1015.19 1015.23 1015.25 1015.25 1015.23 1015.18 1015.10 1014.99 1014.85 1014.68 1014.49 1014.31 1014.15 1014.02 1013.92 1013.86 1013.84 1013.85 1013.88 1013.93 1013.99 1014.08 1014.20 1014.35
1013.01 1013.30 1013.58 1013.82 1014.03 1014.18 1014.28 1014.34 1014.37 1014.40 1014.44 1014.51 1014.61 1014.73 1014.88 1015.02 1015.16 1015.28 1015.36 1015.41 1015.44 1015.43 1015.39 1015.33 1015.23 1015.11 1014.96 1014.77 1014.57 1014.37 1014.16 1013.97 1013.82 1013.70 1013.61 1013.56 1013.53 1013.53 1013.54 1013.57 1013.62 1013.70 1013.82
1013.42 1013.68 1013.95 1014.19 1014.40 1014.55 1014.64 1014.68 1014.69 1014.69 1014.71 1014.76 1014.86 1015.00 1015.16 1015.34 1015.51 1015.65 1015.75 1015.80 1015.80 1015.76 1015.67 1015.56 1015.41 1015.24 1015.04 1014.83 1014.60 1014.37 1014.15 1013.94 1013.76 1013.62 1013.50 1013.42 1013.35 1013.31 1013.28 1013.26 1013.28 1013.32 1013.41
1013.98 1014.21 1014.46 1014.70 1014.90 1015.05 1015.14 1015.17 1015.17 1015.15 1015.15 1015.20 1015.30 1015.46 1015.65 1015.86 1016.06 1016.22 1016.32 1016.36 1016.33 1016.24 1016.11 1015.94 1015.74 1015.51 1015.27 1015.03 1014.77 1014.52 1014.29 1014.06 1013.86 1013.69 1013.54 1013.42 1013.31 1013.22 1013.15 1013.10 1013.08 1013.09 1013.14
1014.68 1014.88 1015.11 1015.34 1015.54 1015.69 1015.78 1015.81 1015.81 1015.79 1015.80 1015.86 1015.97 1016.15 1016.37 1016.59 1016.81 1016.97 1017.06 1017.07 1017.00 1016.87 1016.68 1016.45 1016.19 1015.92 1015.64 1015.36 1015.09 1014.82 1014.56 1014.32 1014.09 1013.89 1013.71 1013.54 1013.40 1013.27 1013.16 1013.07 1013.02 1013.00 1013.02
1015.50 1015.68 1015.88 1016.10 1016.30 1016.45 1016.54 1016.58 1016.59 1016.59 1016.61 1016.69 1016.83 1017.02 1017.25 1017.49 1017.70 1017.84 1017.91 1017.88 1017.77 1017.58 1017.33 1017.05 1016.74 1016.42 1016.11 1015.80 1015.50 1015.21 1014.93 1014.66 1014.40 1014.17 1013.95 1013.75 1013.56 1013.40 1013.27 1013.16 1013.09 1013.05 1013.05
1016.38 1016.54 1016.73 1016.93 1017.12 1017.27 1017.37 1017.42 1017.45 1017.47 1017.52 1017.62 1017.78 1017.99 1018.22 1018.45 1018.64 1018.76 1018.78 1018.71 1018.55 1018.30 1018.00 1017.67 1017.32 1016.96 1016.62 1016.28 1015.95 1015.63 1015.33 1015.03 1014.74 1014.47 1014.21 1013.98 1013.77 1013.59 1013.44 1013.32 1013.24 1013.19 1013.19
1017.27 1017.41 1017.58 1017.77 1017.94 1018.09 1018.19 1018.25 1018.30 1018.35 1018.42 1018.55 1018.72 1018.94 1019.16 1019.37 1019.53 1019.61 1019.58 1019.46 1019.24 1018.95 1018.61 1018.24 1017.86 1017.48 1017.10 1016.74 1016.39 1016.04 1015.70 1015.36 1015.04 1014.74 1014.45 1014.20 1013.97 1013.78 1013.62 1013.50 1013.42 1013.37 1013.36
1018.12 1018.25 1018.40 1018.56 1018.71 1018.84 1018.94 1019.00 1019.06 1019.13 1019.22 1019.36 1019.54 1019.75 1019.96 1020.14 1020.26 1020.29 1020.22 1020.05 1019.80 1019.47 1019.10 1018.70 1018.30 1017.90 1017.51 1017.13 1016.74 1016.36 1015.99 1015.62 1015.26 1014.93 1014.62 1014.35 1014.11 1013.92 1013.76 1013.64 1013.56 1013.51 1013.49
1018.89 1019.01 1019.14 1019.28 1019.40 1019.49 1019.57 1019.62 1019.68 1019.75 1019.85 1019.99 1020.16 1020.35 1020.53 1020.68 1020.76 1020.75 1020.64 1020.44 1020.16 1019.81 1019.43 1019.03 1018.62 1018.21 1017.81 1017.40 1016.99 1016.58 1016.17 1015.77 1015.38 1015.01 1014.68 1014.40 1014.15 1013.95 1013.80 1013.68 1013.59 1013.53 1013.48
1019.60 1019.71 1019.81 1019.91 1019.98 1020.04 1020.08 1020.11 1020.14 1020.20 1020.28 1020.41 1020.56 1020.72 1020.87 1020.98 1021.02 1020.97 1020.83 1020.61 1020.32 1019.98 1019.60 1019.20 1018.80 1018.39 1017.97 1017.55 1017.12 1016.67 1016.23 1015.79 1015.36 1014.97 1014.62 1014.32 1014.07 1013.86 1013.70 1013.57 1013.46 1013.37 1013.28
1020.24 1020.33 1020.41 1020.46 1020.49 1020.50 1020.49 1020.48 1020.47 1020.49 1020.55 1020.64 1020.76 1020.88 1020.99 1021.06 1021.06 1020.99 1020.83 1020.61 1020.32 1019.99 1019.62 1019.24 1018.85 1018.44 1018.02 1017.58 1017.12 1016.65 1016.17 1015.69 1015.23 1014.81 1014.44 1014.12 1013.85 1013.62 1013.44 1013.27 1013.13 1012.99 1012.86
1020.83 1020.91 1020.95 1020.97 1020.95 1020.91 1020.85 1020.78 1020.73 1020.71 1020.72 1020.77 1020.84 1020.92 1020.98 1021.01 1020.98 1020.88 1020.71 1020.49 1020.21 1019.89 1019.54 1019.18 1018.80 1018.39 1017.96 1017.51 1017.02 1016.52 1016.01 1015.50 1015.01 1014.56 1014.16 1013.82 1013.52 1013.26 1013.04 1012.83 1012.63 1012.44 1012.25
1021.37 1021.43 1021.45 1021.43 1021.38 1021.29 1021.18 1021.07 1020.98 1020.91 1020.87 1020.87 1020.89 1020.91 1020.93 1020.91 1020.84 1020.72 1020.54 1020.30 1020.03 1019.72 1019.39 1019.04 1018.66 1018.26 1017.82 1017.35 1016.85 1016.32 1015.77 1015.24 1014.72 1014.25 1013.82 1013.44 1013.11 1012.81 1012.54 1012.28 1012.03 1011.78 1011.53
1021.83 1021.88 1021.89 1021.85 1021.77 1021.66 1021.52 1021.37 1021.24 1021.13 1021.04 1020.99 1020.96 1020.93 1020.89 1020.82 1020.72 1020.56 1020.36 1020.11 1019.83 1019.52 1019.20 1018.84 1018.47 1018.06 1017.61 1017.12 1016.60 1016.05 1015.49 1014.94 1014.40 1013.91 1013.45 1013.05 1012.68 1012.34 1012.02 1011.71 1011.40 1011.09 1010.80
1022.19 1022.24 1022.25 1022.21 1022.12 1022.00 1021.85 1021.68 1021.52 1021.38 1021.26 1021.16 1021.08 1021.00 1020.90 1020.78 1020.63 1020.43 1020.20 1019.93 1019.63 1019.30 1018.96 1018.60 1018.21 1017.79 1017.33 1016.84 1016.31 1015.75 1015.18 1014.62 1014.08 1013.57 1013.10 1012.67 1012.28 1011.90 1011.54 1011.19 1010.83 1010.48 1010.15
1022.42 1022.48 1022.50 1022.47 1022.39 1022.28 1022.13 1021.97 1021.81 1021.65 1021.50 1021.37 1021.24 1021.11 1020.96 1020.79 1020.58 1020.34 1020.06 1019.75 1019.41 1019.06 1018.70 1018.31 1017.90 1017.47 1017.01 1016.51 1015.98 1015.43 1014.87 1014.32 1013.78 1013.28 1012.80 1012.36 1011.95 1011.55 1011.16 1010.78 1010.39 1010.01 1009.65
1022.51 1022.58 1022.62 1022.61 1022.57 1022.48 1022.36 1022.21 1022.06 1021.89 1021.73 1021.57 1021.41 1021.24 1021.04 1020.82 1020.56 1020.26 1019.93 1019.57 1019.19 1018.80 1018.40 1017.99 1017.56 1017.12 1016.65 1016.16 1015.64 1015.11 1014.57 1014.04 1013.53 1013.04 1012.58 1012.15 1011.73 1011.32 1010.92 1010.51 1010.10 1009.71 1009.33
1022.48 1022.56 1022.62 1022.65 1022.63 1022.58 1022.49 1022.37 1022.23 1022.08 1021.92 1021.75 1021.56 1021.35 1021.11 1020.84 1020.53 1020.18 1019.80 1019.40 1018.97 1018.54 1018.11 1017.67 1017.22 1016.76 1016.30 1015.81 1015.32 1014.82 1014.31 1013.82 1013.34 1012.88 1012.44 1012.03 1011.62 1011.21 1010.80 1010.38 1009.96 1009.55 1009.15
1022.36 1022.46 1022.54 1022.60 1022.62 1022.60 1022.54 1022.45 1022.33 1022.19 1022.03 1021.85 1021.65 1021.42 1021.15 1020.85 1020.50 1020.11 1019.69 1019.24 1018.78 1018.31 1017.84 1017.38 1016.92 1016.45 1015.99 1015.52 1015.05 1014.58 1014.12 1013.66 1013.22 1012.80 1012.39 1011.99 1011.60 1011.19 1010.78 1010.35 1009.91 1009.47 1009.05
1022.21 1022.33 1022.43 1022.51 1022.56 1022.56 1022.53 1022.47 1022.37 1022.24 1022.09 1021.91 1021.70 1021.46 1021.17 1020.85 1020.48 1020.06 1019.61 1019.14 1018.65 1018.16 1017.67 1017.18 1016.71 1016.24 1015.78 1015.32 1014.87 1014.43 1013.99 1013.57 1013.17 1012.77 1012.39 1012.02 1011.63 1011.24 1010.81 1010.37 1009.89 1009.41 1008.93
Thickness
5723 5721 5720 5718 5717 5716 5715 5714 5713 5712 5712 5712 5711 5710 5709 5709 5708 5707 5706 5705 5704 5703 5703 5703 5703 5703 5703 5702 5702 5701 5700 5700 5700 5700 5700 5700 5700 5700 5700 5700 5699 5699 5699
5719 5718 5716 5714 5713 5713 5712 5710 5709 5708 5708 5707 5706 5706 5705 5704 5703 5702 5701 5701 5700 5699 5698 5699 5699 5699 5699 5699 5698 5698 5697 5697 5696 5696 5696 5696 5696 5696 5696 5696 5696 5695 5696
5715 5714 5712 5711 5709 5708 5707 5706 5705 5704 5703 5702 5701 5701 5700 5699 5698 5698 5697 5696 5695 5694 5693 5693 5694 5695 5695 5695 5695 5694 5694 5694 5692 5692 5692 5692 5692 5692 5692 5692 5692 5691 5691
5711 5710 5708 5707 5705 5704 5703 5701 5700 5699 5698 5696 5695 5694 5694 5693 5693 5692 5691 5690 5690 5689 5689 5689 5689 5690 5690 5690 5690 5690 5690 5689 5688 5687 5687 5687 5687 5687 5687 5688 5687 5687 5687
5707 5706 5704 5702 5701 5699 5698 5697 5695 5694 5692 5690 5689 5689 5688 5687 5687 5687 5686 5685 5685 5684 5684 5684 5684 5685 5686 5686 5685 5686 5685 5685 5684 5684 5683 5683 5683 5683 5683 5683 5683 5682 5682
5703 5702 5700 5698 5697 5694 5693 5692 5690 5688 5687 5685 5684 5683 5682 5682 5682 5681 5680 5680 5680 5679 5679 5679 5679 5680 5680 5680 5680 5681 5681 5680 5680 5680 5679 5678 5678 5677 5677 5677 5678 5677 5677
5699 5698 5696 5694 5692 5690 5688 5687 5685 5683 5681 5680 5677 5675 5676 5677 5677 5676 5675 5674 5674 5674 5674 5673 5673 5674 5674 5674 5675 5675 5675 5676 5675 5674 5674 5673 5672 5671 5671 5671 5671 5671 5671
5695 5694 5692 5690 5688 5686 5684 5682 5680 5678 5676 5675 5672 5668 5666 5668 5670 5671 5669 5669 5668 5668 5668 5668 5668 5668 5668 5668 5669 5668 5669 5669 5669 5668 5668 5667 5666 5665 5664 5664 5664 5664 5664
5691 5689 5688 5686 5684 5682 5680 5678 5677 5674 5671 5670 5669 5665 5661 5659 5660 5663 5663 5662 5661 5661 5662 5662 5663 5662 5662 5662 5662 5662 5662 5662 5662 5661 5661 5660 5659 5658 5658 5657 5657 5657 5657
5687 5686 5684 5682 5680 5678 5676 5675 5673 5671 5669 5666 5664 5662 5660 5658 5654 5653 5655 5655 5655 5655 5655 5656 5656 5656 5656 5656 5656 5656 5655 5655 5654 5654 5653 5653 5652 5651 5651 5650 5649 5649 5650
5683 5682 5680 5678 5677 5675 5674 5672 5670 5668 5666 5664 5661 5659 5656 5653 5650 5648 5647 5648 5648 5649 5649 5649 5649 5649 5650 5649 5650 5650 5649 5648 5647 5647 5646 5645 5645 5644 5644 5643 5642 5642 5642
5679 5678 5676 5675 5674 5672 5670 5669 5667 5665 5663 5661 5659 5657 5655 5651 5648 5645 5643 5642 5642 5643 5643 5643 5643 5642 5642 5642 5643 5643 5642 5641 5640 5640 5639 5638 5637 5637 5636 5636 5635 5635 5635
5675 5675 5673 5672 5671 5670 5668 5666 5665 5662 5661 5658 5656 5654 5653 5650 5647 5644 5640 5638 5637 5637 5637 5637 5636 5636 5635 5635 5635 5635 5635 5634 5634 5633 5632 5631 5630 5629 5629 5628 5628 5627 5628
5673 5672 5671 5669 5669 5667 5666 5663 5662 5659 5658 5656 5654 5652 5650 5647 5644 5642 5638 5634 5632 5631 5631 5631 5631 5630 5629 5628 5628 5628 5628 5627 5627 5626 5625 5623 5623 5622 5621 5620 5620 5620 5621
5670 5669 5668 5667 5666 5664 5663 5660 5658 5656 5654 5652 5650 5649 5646 5643 5640 5637 5634 5631 5628 5626 5625 5625 5624 5624 5623 5622 5621 5621 5620 5620 5620 5619 5618 5616 5615 5614 5614 5613 5613 5613 5613
5667 5666 5665 5664 5662 5661 5659 5657 5655 5653 5650 5649 5647 5644 5642 5639 5635 5632 5629 5626 5623 5621 5619 5619 5618 5618 5617 5616 5616 5614 5614 5613 5613 5612 5611 5609 5607 5607 5607 5606 5606 5605 5605
5664 5662 5662 5661 5659 5658 5656 5654 5652 5649 5647 5645 5643 5640 5637 5634 5631 5627 5625 5622 5619 5616 5614 5614 5612 5611 5611 5610 5609 5608 5608 5607 5607 5606 5604 5602 5601 5599 5599 5598 5598 5598 5597
5660 5660 5659 5658 5656 5654 5653 5651 5648 5646 5643 5641 5639 5636 5633 5630 5627 5623 5620 5617 5614 5612 5610 5609 5608 5606 5605 5604 5602 5601 5601 5601 5600 5600 5599 5597 5595 5594 5593 5592 5592 5591 5590
5657 5656 5655 5653 5652 5651 5649 5647 5644 5642 5640 5637 5635 5632 5629 5626 5623 5620 5616 5613 5610 5608 5605 5603 5602 5600 5599 5597 5595 5595 5594 5593 5594 5594 5593 5591 5590 5588 5587 5586 5585 5584 5583
5653 5652 5650 5649 5648 5646 5645 5643 5640 5638 5635 5633 5631 5628 5625 5622 5620 5616 5613 5609 5606 5603 5601 5599 5597 5595 5593 5591 5589 5588 5588 5587 5586 5586 5586 5585 5584 5582 5581 5580 5579 5578 5577
5649 5648 5646 5645 5643 5642 5641 5639 5636 5634 5631 5629 5627 5624 5622 5620 5617 5613 5610 5607 5603 5600 5597 5595 5593 5591 5589 5586 5584 5582 5581 5580 5580 5579 5579 5579 5578 5577 5575 5574 5573 5572 5571
5645 5643 5642 5640 5639 5639 5637 5635 5632 5629 5627 5624 5622 5621 5619 5616 5614 5610 5607 5604 5601 5597 5595 5591 5589 5587 5585 5582 5579 5577 5574 5573 5574 5574 5572 5573 5572 5571 5570 5569 5568 5567 5566
5639 5638 5637 5636 5635 5634 5633 5631 5628 5625 5623 5620 5619 5617 5616 5613 5610 5607 5604 5601 5598 5595 5593 5589 5586 5584 5582 5580 5575 5573 5570 5568 5568 5568 5565 5568 5567 5566 5565 5565 5564 5563 5561
5635 5634 5632 5631 5630 5630 5628 5626 5623 5620 5618 5617 5615 5613 5611 5608 5606 5603 5600 5597 5594 5592 5589 5587 5585 5582 5580 5576 5572 5569 5566 5564 5563 5562 5560 5561 5562 5561 5562 5560 5559 5558 5557
5632 5630 5628 5627 5625 5624 5623 5621 5618 5615 5613 5612 5611 5609 5607 5604 5602 5598 5596 5593 5591 5589 5587 5585 5582 5580 5577 5574 5570 5566 5563 5561 5562 5561 5557 5555 5557 5556 5557 5556 5555 5553 5552
5629 5627 5625 5623 5622 5620 5619 5617 5614 5611 5609 5608 5606 5605 5602 5600 5597 5594 5591 5588 5586 5585 5583 5582 5579 5577 5574 5571 5568 5565 5562 5559 5558 5556 5555 5550 5551 5549 5551 5552 5550 5548 5547